Terminal Aerodrome Forecast
Issued by NWS Los Angeles, CA

Home | Current Version | Previous Version | Text Only | Print | Product List | Glossary On
Versions: 1 2 3 4 5 6 7 8 9 10 11 12 13 14 15 16 17 18 19 20 21 22 23 24
287
FTUS46 KLOX 201024 AAA
TAFSMX
TAF AMD
KSMX 201024Z 2010/2106 12006KT P6SM -RA FEW040 OVC060
     FM201100 12008KT 5SM -RA BR OVC015
     FM201300 12018G28KT 2SM RA BR BKN007 OVC015
     FM201800 28020G30KT 4SM -SHRA BR BKN015 OVC025
     FM210200 30014KT P6SM VCSH BKN025=

USA.gov is the U.S. government's official web portal to all federal, state and local government web resources and services.